Guernsey, United Kingdom

10:39 PM BST on July 25, 2017 (GMT +0100)
Guernsey

Weather History for EGJB - November, 2012

Change the Weather History Date:

Sunday, November 18, 2012

  Actual Average Record
Temperature  
Mean Temperature 48 °F -  
Max Temperature 51 °F 49 °F 59 °F (1997)
Min Temperature 44 °F 44 °F 32 °F (1996)
Degree Days  
Heating Degree Days 18    
Moisture  
Dew Point 39 °F    
Average Humidity 73    
Maximum Humidity 81    
Minimum Humidity 62    
Precipitation  
Precipitation 0.00 in - - ()
Sea Level Pressure  
Sea Level Pressure 29.98 in    
Wind  
Wind Speed 5 mph ()    
Max Wind Speed 9 mph    
Max Gust Speed -    
Visibility 6.2 miles    
Events      
Averages and records for this station are not official NWS values.
T = Trace of Precipitation, MM = Missing Value Source: Averaged Metar Reports

Daily Weather History Graph

Daily Weather History Graph

Search for Another Location

Airport or City:

Trip Planner

Search our weather history database for the weather conditions in past years. The results will help you decide how hot, cold, wet, or windy it might be!

Date:

Astronomy

Nov. 18, 2012 Rise Set
Actual Time 7:26 AM GMT 4:24 PM GMT
Civil Twilight 6:51 AM GMT 4:59 PM GMT
Nautical Twilight 6:11 AM GMT 5:38 PM GMT
Astronomical Twilight 5:34 AM GMT 6:16 PM GMT
Moon 11:39 AM GMT (11/18) 9:33 PM GMT (11/18)
Length of Visible Light 10h 08m
Length of Day
8h 57m
Waxing Crescent, 28% of the Moon is Illuminated
Nov 18
Waxing Crescent
Nov 20
First Quarter
Nov 28
Full
Dec 6
Last Quarter
Dec 13
New

Hourly Weather History & Observations

Time (GMT) Temp. Windchill Dew Point Humidity Pressure Visibility Wind Dir Wind Speed Gust Speed Precip Events Conditions
3:00 AM 46 °F - 39 °F 69% 29.93 in 31 mi NNW 9.2 mph - -   Scattered Clouds
3:50 AM 46.4 °F 41.9 °F 37.4 °F 71% 29.92 in 6.2 mi NNW 9.2 mph - N/A   Partly Cloudy
4:20 AM 44.6 °F 40.7 °F 37.4 °F 76% 29.92 in 6.2 mi NNW 6.9 mph - N/A   Partly Cloudy
4:50 AM 44.6 °F 40.2 °F 37.4 °F 76% 29.92 in 6.2 mi NNW 8.1 mph - N/A   Partly Cloudy
5:20 AM 44.6 °F 40.2 °F 37.4 °F 76% 29.95 in 6.2 mi NNW 8.1 mph - N/A   Partly Cloudy
5:50 AM 44.6 °F 41.4 °F 39.2 °F 81% 29.95 in 6.2 mi North 5.8 mph - N/A   Partly Cloudy
6:00 AM 45 °F - 39 °F 71% 29.96 in 34 mi North 5.8 mph - -   Scattered Clouds
6:20 AM 44.6 °F 42.2 °F 37.4 °F 76% 29.95 in 6.2 mi North 4.6 mph - N/A   Partly Cloudy
6:50 AM 44.6 °F 43.1 °F 37.4 °F 76% 29.95 in 6.2 mi North 3.5 mph - N/A   Partly Cloudy
7:20 AM 44.6 °F 43.1 °F 37.4 °F 76% 29.95 in 6.2 mi North 3.5 mph - N/A   Partly Cloudy
7:50 AM 44.6 °F 43.1 °F 37.4 °F 76% 29.98 in 6.2 mi NNE 3.5 mph - N/A   Partly Cloudy
8:20 AM 44.6 °F - 37.4 °F 76% 29.98 in 6.2 mi NNE 2.3 mph - N/A   Scattered Clouds
8:50 AM 46.4 °F - 39.2 °F 76% 29.98 in 6.2 mi Calm Calm - N/A   Scattered Clouds
9:00 AM 47 °F - 39 °F 67% 30.00 in 37 mi Calm Calm - -   Mostly Cloudy
9:20 AM 48.2 °F - 39.2 °F 71% 29.98 in 6.2 mi Variable 2.3 mph - N/A   Partly Cloudy
9:50 AM 50.0 °F - 39.2 °F 66% 29.98 in 6.2 mi NNE 3.5 mph - N/A   Scattered Clouds
10:20 AM 48.2 °F - 41.0 °F 76% 30.01 in 6.2 mi Variable 2.3 mph - N/A   Scattered Clouds
10:50 AM 48.2 °F - 39.2 °F 71% 30.01 in 6.2 mi Calm Calm - N/A   Scattered Clouds
11:20 AM 48.2 °F - 41.0 °F 76% 30.01 in 6.2 mi NE 2.3 mph - N/A   Scattered Clouds
11:50 AM 51.8 °F - 42.8 °F 71% 29.98 in 6.2 mi NE 5.8 mph - N/A   Scattered Clouds
12:00 PM 51 °F - 43 °F 65% 30.00 in 40 mi NE 5.8 mph - -   Mostly Cloudy
12:20 PM 50.0 °F - 41.0 °F 71% 29.98 in 6.2 mi Variable 3.5 mph - N/A   Mostly Cloudy
12:50 PM 50.0 °F - 41.0 °F 71% 29.98 in 6.2 mi ENE 4.6 mph - N/A   Scattered Clouds
1:20 PM 50.0 °F - 41.0 °F 71% 29.98 in 6.2 mi Variable 3.5 mph - N/A   Scattered Clouds
1:50 PM 50.0 °F - 41.0 °F 71% 29.98 in 6.2 mi Variable 3.5 mph - N/A   Scattered Clouds
2:20 PM 50.0 °F - 41.0 °F 71% 29.98 in 6.2 mi Variable 3.5 mph - N/A   Mostly Cloudy
2:50 PM 50.0 °F - 41.0 °F 71% 29.98 in 6.2 mi East 4.6 mph - N/A   Mostly Cloudy
3:00 PM 49 °F - 41 °F 66% 30.00 in 40 mi East 4.6 mph - -   Mostly Cloudy
3:20 PM 48.2 °F - 41.0 °F 76% 29.98 in 6.2 mi Variable 3.5 mph - N/A   Mostly Cloudy
3:50 PM 48.2 °F - 41.0 °F 76% 29.98 in 6.2 mi East 3.5 mph - N/A   Mostly Cloudy
4:20 PM 46.4 °F 45.2 °F 41.0 °F 81% 29.98 in 6.2 mi ESE 3.5 mph - N/A   Mostly Cloudy
4:50 PM 46.4 °F 45.2 °F 39.2 °F 76% 29.98 in 6.2 mi East 3.5 mph - N/A   Mostly Cloudy
5:20 PM 44.6 °F 43.1 °F 39.2 °F 81% 29.98 in 6.2 mi Variable 3.5 mph - N/A   Scattered Clouds
5:50 PM 46.4 °F 45.2 °F 39.2 °F 76% 29.98 in 6.2 mi ESE 3.5 mph - N/A   Mostly Cloudy
6:00 PM 46 °F - 38 °F 67% 30.01 in 40 mi ESE 3.5 mph - -   Mostly Cloudy
6:20 PM 44.6 °F 43.1 °F 37.4 °F 76% 30.01 in 6.2 mi Variable 3.5 mph - N/A   Scattered Clouds
6:50 PM 44.6 °F 41.4 °F 37.4 °F 76% 30.01 in 6.2 mi ESE 5.8 mph - N/A   Scattered Clouds
7:20 PM 44.6 °F 41.4 °F 39.2 °F 81% 30.01 in 6.2 mi SE 5.8 mph - N/A   Scattered Clouds
7:50 PM 44.6 °F 41.4 °F 39.2 °F 81% 29.98 in 6.2 mi SE 5.8 mph - N/A   Partly Cloudy
8:20 PM 46.4 °F 42.4 °F 37.4 °F 71% 29.98 in 6.2 mi SSE 8.1 mph - N/A   Scattered Clouds
8:50 PM 46.4 °F 42.9 °F 37.4 °F 71% 29.98 in 6.2 mi SSE 6.9 mph - N/A   Partly Cloudy
9:00 PM 46 °F - 37 °F 62% 30.00 in 40 mi SSE 6.9 mph - -   Scattered Clouds
9:20 PM 46.4 °F 42.9 °F 35.6 °F 66% 29.98 in 6.2 mi South 6.9 mph - N/A   Partly Cloudy
9:50 PM 48.2 °F - 39.2 °F 71% 29.98 in 6.2 mi South 9.2 mph - N/A   Scattered Clouds